This is the latest recevied weather packets stored in our database for station/object KC3SOZ. If no packets are shown the sender has not sent any weather packets the latest 10 day(s).
| Time | Temp. | Humidity | Pressure | Rain* | Wind** | Luminosity | Snow |
|---|---|---|---|---|---|---|---|
| 1777531621 | 8.89° C | 99% | 1008.2 hPa | 0 mm | - | 0 W/m² | - |
| 1777531319 | 8.89° C | 99% | 1008.2 hPa | 0 mm | - | 0 W/m² | - |
| 1777531016 | 8.89° C | 99% | 1008.2 hPa | 0 mm | - | 0 W/m² | - |
| 1777530714 | 8.89° C | 99% | 1008.4 hPa | 1.78 mm | - | 0 W/m² | - |
| 1777530411 | 8.89° C | 99% | 1008.5 hPa | 1.78 mm | - | 0 W/m² | - |
| 1777530106 | 8.89° C | 99% | 1008.4 hPa | 0 mm | - | 0 W/m² | - |
| 1777529804 | 8.89° C | 99% | 1008.2 hPa | 0 mm | - | 0 W/m² | - |
| 1777529500 | 8.89° C | 99% | 1008.7 hPa | 1.27 mm | - | 0 W/m² | - |
| 1777529199 | 8.89° C | 99% | 1008.5 hPa | 3.05 mm | - | 0 W/m² | - |
| 1777528894 | 9.44° C | 99% | 1008.7 hPa | 6.1 mm | - | 0 W/m² | - |
| 1777528590 | 9.44° C | 99% | 1008.7 hPa | 4.32 mm | - | 0 W/m² | - |
| 1777528288 | 9.44° C | 99% | 1008.8 hPa | 0 mm | - | 0 W/m² | - |
| 1777527987 | 9.44° C | 99% | 1008.7 hPa | 0 mm | - | 0 W/m² | - |
| 1777527681 | 9.44° C | 99% | 1008.2 hPa | 0 mm | - | 0 W/m² | - |
| 1777527377 | 8.89° C | 99% | 1008.7 hPa | 0 mm | - | 0 W/m² | - |
| 1777527073 | 9.44° C | 99% | 1008.5 hPa | 0 mm | - | 0 W/m² | - |
| 1777526769 | 9.44° C | 99% | 1008.6 hPa | 0 mm | - | 0 W/m² | - |
| 1777526463 | 9.44° C | 99% | 1008.7 hPa | 0 mm | - | 0 W/m² | - |
| 1777526158 | 9.44° C | 99% | 1008.8 hPa | 0 mm | - | 0 W/m² | - |
| 1777525854 | 9.44° C | 99% | 1008.5 hPa | 1.78 mm | - | 0 W/m² | - |
| 1777525553 | 9.44° C | 99% | 1008.6 hPa | 1.78 mm | - | 0 W/m² | - |
| 1777525249 | 9.44° C | 99% | 1008.6 hPa | 0 mm | - | 0 W/m² | - |
| 1777524945 | 9.44° C | 99% | 1008.9 hPa | 0 mm | - | 0 W/m² | - |
| 1777524642 | 9.44° C | 99% | 1008.8 hPa | 0 mm | - | 0 W/m² | - |
| 1777524341 | 9.44° C | 99% | 1009.1 hPa | 0 mm | - | 0 W/m² | - |
* Rain latest hour (hover to see other rain measurements)
** Current wind speed in m/s (hover to see current wind gust speed)